Date String (YYYY-MM-DD hh:mm:ss) UTC,Instrument flags,absolute air pressure of the measurement (hPa),sample flow rate (lpm),inlet stack bypass flow (lpm),air temperature of the measurement (°C),ambient temperature measured by the external sensor (°C),aerosol sample conditioner tube jacket temperature (°C),OPC LED temperature (°C),internal box temperature (°C),relative humidity of the measurement (%),span deviation,mass concentration of particles derived from Lorenz-Mie calculation of OPC scattering (μg/m³),mass concentration of particles derived from Lorenz-Mie calculation of OPC scattering (μg/m³),mass concentration of particles derived from Lorenz-Mie calculation of OPC scattering (μg/m³)
DateTimeUTC,F1_M11,P_M11,Q1_M11,Q2_M11,T1_M11,T2_M11,T3_M11,T4_M11,T5_M11,U1_M11,ZSPAN_M11,X2_M11,X0_M11,X1_M11
2024-05-05 17:00:00,SystemResetWarning,0821.1,4.99,000.00,024.6,024.0,000.0,032.8,026.3,024.9,0000.0,0005.13,0015.33,0003.90
2024-05-05 17:01:00,SystemResetWarning,0821.3,5.00,000.00,024.6,024.0,000.0,032.8,026.3,024.8,0000.0,0005.11,0015.20,0003.93
2024-05-05 17:02:00,SystemResetWarning,0821.1,5.01,000.00,024.6,024.0,000.0,032.8,026.3,024.6,0000.0,0005.15,0015.19,0003.96
2024-05-05 17:03:00,SystemResetWarning,0821.3,5.00,000.00,024.6,024.0,000.0,032.8,026.4,024.7,0000.0,0005.21,0014.30,0003.98
2024-05-05 17:04:00,SystemResetWarning,0821.2,5.01,000.00,024.6,024.0,000.0,032.8,026.3,024.5,0000.0,0005.22,0013.62,0004.00
2024-05-05 17:05:00,SystemResetWarning,0821.2,5.00,000.00,024.6,024.1,000.0,032.9,026.4,024.5,0000.0,0005.27,0014.16,0004.01
2024-05-05 17:06:00,SystemResetWarning,0821.2,5.01,000.00,024.7,024.1,000.0,032.9,026.4,024.7,0000.0,0005.27,0014.70,0004.01
2024-05-05 17:07:00,SystemResetWarning,0821.2,5.00,000.00,024.7,024.1,000.0,032.9,026.5,024.6,0000.0,0005.25,0014.64,0004.02
2024-05-05 17:08:00,SystemResetWarning,0821.2,5.00,000.00,024.7,024.1,000.0,032.9,026.4,024.6,0000.0,0005.23,0014.58,0004.02
2024-05-05 17:09:00,SystemResetWarning,0821.1,4.99,000.00,024.7,024.1,000.0,032.9,026.4,024.6,0000.0,0005.30,0016.19,0004.06
2024-05-05 17:10:00,SystemResetWarning,0821.3,4.99,000.00,024.7,024.1,000.0,032.9,026.4,024.5,0000.0,0005.30,0016.28,0004.09
2024-05-05 17:11:00,SystemResetWarning,0821.1,5.00,000.00,024.7,024.1,000.0,032.9,026.4,024.6,0000.0,0005.36,0015.73,0004.12
2024-05-05 17:12:00,SystemResetWarning,0821.1,5.01,000.00,024.7,024.1,000.0,032.9,026.5,024.5,0000.0,0005.45,0016.78,0004.15
2024-05-05 17:13:00,SystemResetWarning,0821.1,5.01,000.00,024.7,024.1,000.0,032.9,026.5,024.5,0000.0,0005.52,0017.50,0004.15
2024-05-05 17:14:00,SystemResetWarning,0821.3,5.00,000.00,024.7,024.1,000.0,033.0,026.5,024.5,0000.0,0005.53,0017.84,0004.16
2024-05-05 17:15:00,SystemResetWarning,0821.2,4.99,000.00,024.7,024.2,000.0,033.0,026.5,024.4,0000.0,0005.53,0017.60,0004.17
2024-05-05 17:16:00,SystemResetWarning,0820.9,5.00,000.00,024.7,024.2,000.0,033.0,026.5,024.5,0000.0,0005.55,0017.72,0004.19
2024-05-05 17:17:00,SystemResetWarning,0821.1,5.00,000.00,024.8,024.2,000.0,033.0,026.5,024.4,0000.0,0005.55,0017.16,0004.21
2024-05-05 17:18:00,SystemResetWarning,0821.0,5.00,000.00,024.8,024.2,000.0,033.0,026.5,024.3,0000.0,0005.59,0016.69,0004.21
2024-05-05 17:19:00,SystemResetWarning,0821.1,5.00,000.00,024.8,024.2,000.0,033.0,026.6,023.9,0000.0,0005.64,0016.82,0004.22
2024-05-05 17:20:00,SystemResetWarning,0821.1,5.00,000.00,024.8,024.2,000.0,033.0,026.6,023.8,0000.0,0005.59,0016.98,0004.20
2024-05-05 17:21:00,SystemResetWarning,0820.9,5.01,000.00,024.8,024.2,000.0,033.0,026.6,023.7,0000.0,0005.54,0017.94,0004.18
2024-05-05 17:22:00,SystemResetWarning,0820.8,5.00,000.00,024.8,024.2,000.0,033.0,026.6,023.8,0000.0,0005.51,0018.93,0004.16
2024-05-05 17:23:00,SystemResetWarning,0820.8,5.00,000.00,024.8,024.2,000.0,033.1,026.6,024.0,0000.0,0005.52,0018.48,0004.15
2024-05-05 17:24:00,SystemResetWarning,0820.8,4.99,000.00,024.8,024.2,000.0,033.1,026.6,023.9,0000.0,0005.44,0017.72,0004.14
2024-05-05 17:25:00,SystemResetWarning,0820.8,5.00,000.00,024.8,024.2,000.0,033.1,026.6,023.8,0000.0,0005.42,0017.96,0004.13
2024-05-05 17:26:00,SystemResetWarning,0820.7,5.00,000.00,024.8,024.2,000.0,033.1,026.6,023.6,0000.0,0005.40,0017.88,0004.10
2024-05-05 17:27:00,SystemResetWarning,0820.7,5.01,000.00,024.8,024.3,000.0,033.1,026.6,023.4,0000.0,0005.39,0017.68,0004.08
2024-05-05 17:28:00,SystemResetWarning,0820.6,5.00,000.00,024.9,024.3,000.0,033.1,026.6,022.7,0000.0,0005.35,0018.24,0004.06
2024-05-05 17:29:00,SystemResetWarning,0820.6,4.98,000.00,024.9,024.3,000.0,033.1,026.7,023.0,0000.0,0005.28,0019.72,0004.04
2024-05-05 17:30:00,SystemResetWarning,0820.6,5.01,000.00,024.9,024.3,000.0,033.2,026.7,023.8,0000.0,0005.23,0020.55,0004.02
2024-05-05 17:31:00,SystemResetWarning,0820.6,5.01,000.00,024.9,024.2,000.0,033.2,026.7,024.4,0000.0,0005.27,0019.29,0004.02
2024-05-05 17:32:00,SystemResetWarning,0820.5,5.01,000.00,024.9,024.2,000.0,033.2,026.7,024.5,0000.0,0005.34,0017.75,0004.02
2024-05-05 17:33:00,SystemResetWarning,0820.5,5.01,000.00,024.9,024.2,000.0,033.2,026.7,024.4,0000.0,0005.33,0016.20,0004.02
2024-05-05 17:34:00,SystemResetWarning,0820.5,5.00,000.00,024.9,024.2,000.0,033.2,026.7,024.6,0000.0,0005.27,0016.19,0004.02
2024-05-05 17:35:00,SystemResetWarning,0820.5,5.00,000.00,024.9,024.2,000.0,033.3,026.7,024.5,0000.0,0005.27,0016.40,0004.02
2024-05-05 17:36:00,SystemResetWarning,0820.5,4.99,000.00,024.9,024.2,000.0,033.3,026.7,024.3,0000.0,0005.26,0016.86,0004.02
2024-05-05 17:37:00,SystemResetWarning,0820.5,5.00,000.00,024.9,024.2,000.0,033.3,026.7,024.7,0000.0,0005.29,0019.40,0004.03
2024-05-05 17:38:00,SystemResetWarning,0820.5,5.01,000.00,024.9,024.2,000.0,033.3,026.7,024.8,0000.0,0005.25,0019.79,0004.04
2024-05-05 17:39:00,SystemResetWarning,0820.8,5.00,000.00,024.9,024.2,000.0,033.3,026.6,024.6,0000.0,0005.30,0020.54,0004.06
2024-05-05 17:40:00,SystemResetWarning,0820.8,5.00,000.00,024.9,024.2,000.0,033.2,026.7,024.6,0000.0,0005.34,0019.34,0004.07
2024-05-05 17:41:00,SystemResetWarning,0820.8,4.98,000.00,024.9,024.2,000.0,033.2,026.7,024.7,0000.0,0005.40,0018.20,0004.09
2024-05-05 17:42:00,SystemResetWarning,0820.7,5.00,000.00,024.9,024.3,000.0,033.2,026.7,024.5,0000.0,0005.42,0018.38,0004.10
2024-05-05 17:43:00,SystemResetWarning,0820.8,5.01,000.00,024.9,024.3,000.0,033.2,026.7,024.2,0000.0,0005.42,0018.46,0004.11
2024-05-05 17:44:00,SystemResetWarning,0820.6,5.01,000.00,024.9,024.3,000.0,033.2,026.7,024.4,0000.0,0005.46,0018.64,0004.13
2024-05-05 17:45:00,SystemResetWarning,0820.4,4.98,000.00,024.9,024.3,000.0,033.2,026.7,024.4,0000.0,0005.45,0018.00,0004.14
2024-05-05 17:46:00,SystemResetWarning,0820.5,5.00,000.00,024.9,024.3,000.0,033.3,026.7,024.3,0000.0,0005.44,0017.35,0004.15
2024-05-05 17:47:00,SystemResetWarning,0820.6,5.01,000.00,025.0,024.3,000.0,033.3,026.7,024.2,0000.0,0005.46,0016.49,0004.18
2024-05-05 17:48:00,SystemResetWarning,0821.0,5.01,000.00,025.0,024.3,000.0,033.3,026.7,024.2,0000.0,0005.43,0014.60,0004.18
2024-05-05 17:49:00,SystemResetWarning,0820.7,5.00,000.00,025.0,024.3,000.0,033.3,026.7,024.2,0000.0,0005.46,0014.07,0004.19
2024-05-05 17:50:00,SystemResetWarning,0820.3,4.99,000.00,025.0,024.3,000.0,033.3,026.7,024.1,0000.0,0005.47,0012.25,0004.19
2024-05-05 17:51:00,SystemResetWarning,0820.3,4.99,000.00,025.0,024.3,000.0,033.3,026.8,023.9,0000.0,0005.46,0011.61,0004.21
2024-05-05 17:52:00,SystemResetWarning,0820.4,5.00,000.00,025.0,024.3,000.0,033.3,026.8,024.0,0000.0,0005.45,0012.84,0004.21
2024-05-05 17:53:00,SystemResetWarning,0820.3,5.01,000.00,025.0,024.3,000.0,033.3,026.8,023.8,0000.0,0005.41,0013.32,0004.22
2024-05-05 17:54:00,SystemResetWarning,0820.4,5.01,000.00,025.0,024.3,000.0,033.3,026.8,023.8,0000.0,0005.38,0013.89,0004.21
2024-05-05 17:55:00,SystemResetWarning,0820.4,5.00,000.00,025.0,024.3,000.0,033.3,026.8,023.9,0000.0,0005.32,0014.03,0004.18
2024-05-05 17:56:00,SystemResetWarning,0820.6,4.99,000.00,025.0,024.3,000.0,033.3,026.8,023.8,0000.0,0005.30,0014.88,0004.17
2024-05-05 17:57:00,SystemResetWarning,0820.8,4.99,000.00,025.0,024.4,000.0,033.3,026.8,023.6,0000.0,0005.27,0015.62,0004.15
2024-05-05 17:58:00,SystemResetWarning,0820.4,5.00,000.00,025.0,024.4,000.0,033.3,026.8,023.5,0000.0,0005.25,0017.30,0004.15
2024-05-05 17:59:00,SystemResetWarning,0820.3,5.01,000.00,025.0,024.4,000.0,033.3,026.8,023.4,0000.0,0005.27,0016.83,0004.13
